| time (UTC) | temp C | wind direction | speed KPH | gust KPH | rain 1hr cm | rain 24hr cm | rain mn cm | humidity % | barometer mb |
| 20260506221553 | 12 | 263 | 1.6 | 9.7 | 0.00 | 0.03 | 0.03 | 89 | 1021.0 |
| 20260506220053 | 12 | 264 | 1.6 | 6.4 | 0.00 | 0.03 | 0.03 | 89 | 1021.1 |
| 20260506214551 | 12 | 264 | 1.6 | 6.4 | 0.00 | 0.03 | 0.03 | 89 | 1021.1 |
| 20260506213053 | 11 | 264 | 1.6 | 6.4 | 0.00 | 0.03 | 0.03 | 90 | 1021.2 |
| 20260506211555 | 11 | 264 | 3.2 | 9.7 | 0.00 | 0.03 | 0.03 | 90 | 1021.4 |
| 20260506210057 | 11 | 270 | 4.8 | 6.4 | 0.00 | 0.03 | 0.03 | 90 | 1021.2 |
| 20260506204554 | 11 | 270 | 3.2 | 9.7 | 0.00 | 0.03 | 0.03 | 91 | 1021.2 |
| 20260506203056 | 11 | 270 | 3.2 | 9.7 | 0.00 | 0.03 | 0.03 | 92 | 1021.3 |
| 20260506201622 | 11 | 285 | 0.0 | 9.7 | 0.00 | 0.03 | 0.03 | 93 | 1021.2 |
| 20260506200055 | 11 | 287 | 1.6 | 8.0 | 0.00 | 0.03 | 0.03 | 94 | 1021.1 |
| 20260506194555 | 10 | 288 | 4.8 | 8.0 | 0.00 | 0.03 | 0.03 | 94 | 1021.0 |
| 20260506193056 | 10 | 291 | 3.2 | 6.4 | 0.00 | 0.03 | 0.03 | 95 | 1021.0 |
| 20260506191553 | 10 | 0 | 1.6 | 6.4 | 0.00 | 0.03 | 0.03 | 95 | 1021.0 |
| 20260506190058 | 10 | 298 | 3.2 | 6.4 | 0.00 | 0.03 | 0.03 | 95 | 1020.8 |
| 20260506184603 | 10 | 0 | 0.0 | 4.8 | 0.00 | 0.03 | 0.03 | 95 | 1020.7 |
| 20260506183101 | 10 | 0 | 0.0 | 3.2 | 0.00 | 0.03 | 0.03 | 95 | 1020.7 |
| 20260506181610 | 10 | 0 | 0.0 | 3.2 | 0.00 | 0.03 | 0.03 | 95 | 1020.8 |
| 20260506174555 | 10 | 0 | 0.0 | 4.8 | 0.03 | 0.03 | 0.03 | 95 | 1020.5 |
| 20260506173113 | 10 | 0 | 0.0 | 4.8 | 0.03 | 0.03 | 0.03 | 95 | 1020.4 |
| 20260506171600 | 10 | 0 | 0.0 | 4.8 | 0.03 | 0.03 | 0.03 | 95 | 1020.3 |
| 20260506164556 | 10 | 0 | 0.0 | 1.6 | 0.00 | 0.00 | 0.00 | 95 | 1020.2 |
| 20260506163104 | 10 | 0 | 0.0 | 1.6 | 0.00 | 0.00 | 0.00 | 95 | 1020.2 |
| 20260506161603 | 10 | 0 | 0.0 | 6.4 | 0.00 | 0.00 | 0.00 | 95 | 1020.1 |
| 20260506160056 | 10 | 34 | 0.0 | 3.2 | 0.00 | 0.00 | 0.00 | 94 | 1020.2 |
| 20260506154602 | 10 | 34 | 1.6 | 4.8 | 0.00 | 0.00 | 0.00 | 94 | 1020.0 |
| 20260506153053 | 11 | 0 | 0.0 | 0.0 | 0.00 | 0.00 | 0.00 | 95 | 1020.0 |
| 20260506151558 | 10 | 81 | 0.0 | 4.8 | 0.00 | 0.00 | 0.00 | 95 | 1019.7 |
| 20260506150053 | 10 | 0 | 0.0 | 0.0 | 0.00 | 0.00 | 0.00 | 95 | 1019.4 |
| 20260506144553 | 10 | 0 | 0.0 | 1.6 | 0.00 | 0.00 | 0.00 | 95 | 1019.3 |
| 20260506143052 | 10 | 0 | 0.0 | 1.6 | 0.00 | 0.00 | 0.00 | 95 | 1019.5 |
| 20260506141558 | 10 | 0 | 0.0 | 4.8 | 0.00 | 0.00 | 0.00 | 95 | 1019.4 |
| 20260506140100 | 10 | 0 | 0.0 | 3.2 | 0.00 | 0.00 | 0.00 | 95 | 1019.0 |
| 20260506134553 | 10 | 0 | 0.0 | 0.0 | 0.00 | 0.00 | 0.00 | 95 | 1019.1 |
| 20260506133102 | 10 | 0 | 0.0 | 3.2 | 0.00 | 0.00 | 0.00 | 94 | 1018.9 |
| 20260506131557 | 10 | 0 | 0.0 | 0.0 | 0.00 | 0.00 | 0.00 | 94 | 1018.9 |
| 20260506130055 | 10 | 0 | 0.0 | 1.6 | 0.00 | 0.00 | 0.00 | 94 | 1018.9 |
| 20260506124554 | 10 | 0 | 0.0 | 1.6 | 0.00 | 0.00 | 0.00 | 94 | 1018.9 |
| 20260506123052 | 10 | 0 | 0.0 | 4.8 | 0.00 | 0.00 | 0.00 | 94 | 1018.9 |
| 20260506121600 | 10 | 59 | 0.0 | 4.8 | 0.00 | 0.00 | 0.00 | 94 | 1018.8 |
| 20260506120109 | 10 | 59 | 1.6 | 6.4 | 0.00 | 0.00 | 0.00 | 93 | 1018.8 |
| 20260506114610 | 10 | 59 | 1.6 | 4.8 | 0.00 | 0.00 | 0.00 | 93 | 1018.8 |
| 20260506113053 | 10 | 0 | 0.0 | 0.0 | 0.00 | 0.00 | 0.00 | 93 | 1018.6 |
| 20260506111555 | 10 | 0 | 0.0 | 0.0 | 0.00 | 0.00 | 0.00 | 94 | 1018.6 |
| 20260506110054 | 10 | 0 | 0.0 | 3.2 | 0.00 | 0.00 | 0.00 | 94 | 1018.4 |
| 20260506104554 | 10 | 0 | 0.0 | 1.6 | 0.00 | 0.00 | 0.00 | 94 | 1018.2 |
| 20260506103054 | 10 | 0 | 0.0 | 0.0 | 0.00 | 0.00 | 0.00 | 94 | 1018.0 |
| 20260506101553 | 10 | 0 | 0.0 | 3.2 | 0.00 | 0.00 | 0.00 | 94 | 1017.9 |
| 20260506100053 | 10 | 0 | 0.0 | 3.2 | 0.00 | 0.00 | 0.00 | 94 | 1017.9 |
| 20260506094554 | 10 | 0 | 0.0 | 1.6 | 0.00 | 0.00 | 0.00 | 94 | 1017.9 |
| 20260506093110 | 10 | 0 | 0.0 | 0.0 | 0.00 | 0.00 | 0.00 | 94 | 1017.9 |
| 20260506091554 | 10 | 0 | 0.0 | 0.0 | 0.00 | 0.00 | 0.00 | 94 | 1017.9 |
| 20260506090113 | 10 | 0 | 0.0 | 0.0 | 0.00 | 0.00 | 0.00 | 94 | 1017.9 |
| 20260506084557 | 9 | 0 | 0.0 | 0.0 | 0.00 | 0.00 | 0.00 | 94 | 1017.8 |
| 20260506083054 | 9 | 0 | 0.0 | 0.0 | 0.00 | 0.00 | 0.00 | 93 | 1017.9 |
| 20260506081602 | 9 | 0 | 0.0 | 0.0 | 0.00 | 0.00 | 0.00 | 93 | 1017.7 |
| 20260506080111 | 9 | 0 | 0.0 | 0.0 | 0.00 | 0.00 | 0.00 | 93 | 1017.4 |
| 20260506073105 | 9 | 0 | 0.0 | 0.0 | 0.00 | 0.00 | 0.00 | 92 | 1017.1 |
| 20260506071554 | 10 | 0 | 0.0 | 0.0 | 0.00 | 0.00 | 0.00 | 91 | 1017.0 |
| 20260506061602 | 10 | 59 | 0.0 | 4.8 | 0.00 | 0.00 | 0.00 | 91 | 1016.7 |
| 20260506060201 | 10 | 59 | 0.0 | 4.8 | 0.00 | 0.00 | 0.00 | 91 | 1016.7 |
| 20260506044608 | 11 | 59 | 0.0 | 6.4 | 0.00 | 0.00 | 0.00 | 89 | 1016.4 |
| 20260506043055 | 11 | 59 | 3.2 | 6.4 | 0.00 | 0.00 | 0.00 | 88 | 1016.2 |
| 20260506041606 | 11 | 59 | 3.2 | 6.4 | 0.00 | 0.00 | 0.00 | 88 | 1016.0 |
| 20260506040101 | 11 | 59 | 1.6 | 4.8 | 0.00 | 0.00 | 0.00 | 87 | 1015.8 |
| 20260506034553 | 12 | 59 | 0.0 | 3.2 | 0.00 | 0.00 | 0.00 | 86 | 1015.6 |
| 20260506033055 | 12 | 0 | 0.0 | 4.8 | 0.00 | 0.00 | 0.00 | 85 | 1015.5 |
| 20260506031553 | 12 | 59 | 1.6 | 4.8 | 0.00 | 0.00 | 0.00 | 83 | 1015.5 |
| 20260506030054 | 13 | 0 | 0.0 | 3.2 | 0.00 | 0.00 | 0.00 | 82 | 1015.5 |
| 20260506024600 | 13 | 0 | 0.0 | 3.2 | 0.00 | 0.00 | 0.00 | 80 | 1015.6 |
| 20260506023056 | 14 | 59 | 0.0 | 3.2 | 0.00 | 0.00 | 0.00 | 79 | 1015.5 |
| 20260506021554 | 14 | 0 | 0.0 | 1.6 | 0.00 | 0.00 | 0.00 | 77 | 1015.6 |
| 20260506020121 | 15 | 0 | 0.0 | 3.2 | 0.00 | 0.00 | 0.00 | 76 | 1015.5 |
| 20260506014554 | 15 | 59 | 0.0 | 6.4 | 0.00 | 0.00 | 0.00 | 77 | 1015.6 |
| 20260506013051 | 15 | 0 | 0.0 | 4.8 | 0.00 | 0.00 | 0.00 | 76 | 1015.7 |
| 20260506011552 | 15 | 0 | 0.0 | 4.8 | 0.00 | 0.00 | 0.00 | 76 | 1015.7 |
| 20260506010055 | 15 | 321 | 0.0 | 4.8 | 0.00 | 0.00 | 0.00 | 76 | 1015.7 |
| 20260506004551 | 15 | 0 | 1.6 | 4.8 | 0.00 | 0.00 | 0.00 | 74 | 1015.8 |
| 20260506003056 | 16 | 0 | 0.0 | 4.8 | 0.00 | 0.00 | 0.00 | 74 | 1015.8 |
| 20260506001606 | 15 | 320 | 0.0 | 6.4 | 0.00 | 0.00 | 0.00 | 75 | 1015.7 |
| 20260506000122 | 16 | 0 | 1.6 | 4.8 | 0.00 | 0.00 | 0.00 | 74 | 1015.9 |
| 20260505234552 | 16 | 0 | 1.6 | 6.4 | 0.00 | 0.00 | 0.00 | 73 | 1016.0 |
| 20260505233056 | 16 | 285 | 1.6 | 4.8 | 0.00 | 0.00 | 0.00 | 75 | 1016.1 |
| 20260505231557 | 16 | 271 | 0.0 | 6.4 | 0.00 | 0.00 | 0.00 | 73 | 1016.2 |
| 20260505230054 | 17 | 332 | 3.2 | 9.7 | 0.00 | 0.00 | 0.00 | 73 | 1016.3 |
| 20260505224552 | 17 | 284 | 1.6 | 11.3 | 0.00 | 0.00 | 0.00 | 75 | 1016.3 |
| 20260505223105 | 16 | 290 | 3.2 | 14.5 | 0.00 | 0.00 | 0.00 | 76 | 1016.3 |